Date String (YYYY-MM-DD hh:mm:ss) UTC,Instrument flags,Ambient pressure (hPa),Sample flow (lpm),Bypass flow (lpm),Sample temperature (°C),Ambient temperature (°C),ASC tube jacket temperature (°C),LED temperature (°C),Box temperature (°C),Sample RH (%),Span deviation,Mass concentration (μg/m³),Mass concentration (μg/m³),Mass concentration (μg/m³)
DateTimeUTC,F1_M11,P_M11,Q1_M11,Q2_M11,T1_M11,T2_M11,T3_M11,T4_M11,T5_M11,U1_M11,ZSPAN_M11,X0_M11,X2_M11,X1_M11
2023-01-21 16:00:00,,0826.4,5.00,0.00,22.5,21.3,00.0,31.2,24.3,08.3,0000.0,0007.77,0005.00,0004.75
2023-01-21 16:01:00,,0826.4,5.00,0.00,22.5,21.3,00.0,31.2,24.3,08.3,0000.0,0007.95,0004.99,0004.75
2023-01-21 16:02:00,,0826.4,5.00,0.00,22.5,21.3,00.0,31.3,24.3,08.4,0000.0,0007.94,0005.00,0004.76
2023-01-21 16:03:00,,0826.4,4.99,0.00,22.5,21.4,00.0,31.3,24.3,08.4,0000.0,0007.94,0005.00,0004.75
2023-01-21 16:04:00,,0826.4,5.01,0.00,22.6,21.3,00.0,31.3,24.3,08.4,0000.0,0008.02,0005.00,0004.74
2023-01-21 16:05:00,,0826.4,4.99,0.00,22.6,21.4,00.0,31.3,24.3,08.3,0000.0,0008.93,0005.01,0004.74
2023-01-21 16:06:00,,0826.5,5.00,0.00,22.6,21.3,00.0,31.3,24.3,08.2,0000.0,0008.79,0004.99,0004.74
2023-01-21 16:07:00,,0826.5,5.01,0.00,22.5,21.3,00.0,31.3,24.3,08.2,0000.0,0009.05,0004.98,0004.74
2023-01-21 16:08:00,,0826.5,5.01,0.00,22.5,21.3,00.0,31.3,24.3,08.2,0000.0,0008.96,0004.97,0004.74
2023-01-21 16:09:00,,0826.5,4.98,0.00,22.5,21.2,00.0,31.3,24.3,08.2,0000.0,0008.98,0004.98,0004.74
2023-01-21 16:10:00,,0826.5,4.99,0.00,22.5,21.2,00.0,31.3,24.3,08.2,0000.0,0009.07,0004.98,0004.75
2023-01-21 16:11:00,,0826.5,4.98,0.00,22.5,21.2,00.0,31.3,24.3,08.2,0000.0,0009.20,0004.95,0004.74
2023-01-21 16:12:00,,0826.5,5.01,0.00,22.5,21.2,00.0,31.3,24.3,08.2,0000.0,0008.89,0004.92,0004.73
2023-01-21 16:13:00,,0826.5,5.00,0.00,22.5,21.2,00.0,31.3,24.3,08.2,0000.0,0008.87,0004.91,0004.71
2023-01-21 16:14:00,,0826.5,4.99,0.00,22.5,21.2,00.0,31.3,24.3,08.4,0000.0,0008.89,0004.90,0004.71
2023-01-21 16:15:00,,0826.5,5.00,0.00,22.5,21.2,00.0,31.3,24.3,08.3,0000.0,0008.86,0004.87,0004.70
2023-01-21 16:16:00,,0826.5,5.00,0.00,22.5,21.2,00.0,31.3,24.3,08.3,0000.0,0008.08,0004.87,0004.69
2023-01-21 16:17:00,,0826.5,5.01,0.00,22.5,21.2,00.0,31.3,24.3,08.3,0000.0,0007.84,0004.86,0004.68
2023-01-21 16:18:00,,0826.5,5.01,0.00,22.5,21.1,00.0,31.2,24.3,08.4,0000.0,0007.47,0004.85,0004.67
2023-01-21 16:19:00,,0826.5,4.99,0.00,22.5,21.2,00.0,31.2,24.3,08.4,0000.0,0007.47,0004.86,0004.66
2023-01-21 16:20:00,,0826.5,4.99,0.00,22.5,21.2,00.0,31.2,24.3,08.5,0000.0,0007.53,0004.87,0004.65
2023-01-21 16:21:00,,0826.5,5.01,0.00,22.6,21.3,00.0,31.2,24.4,08.6,0000.0,0007.64,0004.88,0004.65
2023-01-21 16:22:00,,0826.4,4.99,0.00,22.6,21.4,00.0,31.3,24.4,08.5,0000.0,0007.42,0004.89,0004.66
2023-01-21 16:23:00,,0826.5,5.00,0.00,22.6,21.4,00.0,31.3,24.4,08.7,0000.0,0007.56,0004.91,0004.67
2023-01-21 16:24:00,,0826.4,4.98,0.00,22.6,21.5,00.0,31.3,24.4,08.4,0000.0,0007.55,0004.91,0004.68
2023-01-21 16:25:00,,0826.3,4.99,0.00,22.6,21.5,00.0,31.3,24.4,08.4,0000.0,0007.53,0004.90,0004.68
2023-01-21 16:26:00,,0826.4,4.99,0.00,22.6,21.5,00.0,31.3,24.4,08.5,0000.0,0007.54,0004.92,0004.69
2023-01-21 16:27:00,,0826.4,4.98,0.00,22.6,21.5,00.0,31.3,24.5,08.4,0000.0,0007.59,0004.95,0004.72
2023-01-21 16:28:00,,0826.4,4.99,0.00,22.6,21.6,00.0,31.3,24.5,08.6,0000.0,0007.66,0004.96,0004.73
2023-01-21 16:29:00,,0826.4,5.02,0.00,22.6,21.6,00.0,31.3,24.5,08.8,0000.0,0007.70,0004.99,0004.74
2023-01-21 16:30:00,,0826.4,4.98,0.00,22.6,21.6,00.0,31.3,24.5,08.7,0000.0,0007.75,0005.01,0004.75
2023-01-21 16:31:00,,0826.4,5.01,0.00,22.7,21.6,00.0,31.3,24.5,08.6,0000.0,0007.67,0004.99,0004.76
2023-01-21 16:32:00,,0826.4,5.00,0.00,22.7,21.5,00.0,31.3,24.5,08.7,0000.0,0007.89,0005.00,0004.77
2023-01-21 16:33:00,,0826.4,5.00,0.00,22.6,21.4,00.0,31.3,24.5,08.3,0000.0,0008.55,0004.99,0004.78
2023-01-21 16:34:00,,0826.4,5.03,0.00,22.6,21.3,00.0,31.3,24.4,08.5,0000.2,0008.47,0004.99,0004.77
2023-01-21 16:35:00,,0826.4,5.03,0.00,22.6,21.2,00.0,31.3,24.4,08.3,0000.1,0008.39,0005.00,0004.78
2023-01-21 16:36:00,,0826.5,5.01,0.00,22.6,21.1,00.0,31.3,24.4,08.3,0000.0,0008.46,0005.02,0004.78
2023-01-21 16:37:00,,0826.5,5.00,0.00,22.6,21.1,00.0,31.3,24.4,08.3,0000.0,0008.53,0005.05,0004.80
2023-01-21 16:38:00,,0826.5,5.00,0.00,22.6,21.1,00.0,31.3,24.4,08.4,0000.0,0008.49,0005.04,0004.80
2023-01-21 16:39:00,,0826.5,4.99,0.00,22.6,21.1,00.0,31.3,24.3,08.4,0000.0,0008.39,0005.02,0004.80
2023-01-21 16:40:00,,0826.5,5.00,0.00,22.6,21.0,00.0,31.3,24.3,08.5,0000.0,0008.37,0005.01,0004.80
2023-01-21 16:41:00,,0826.5,5.00,0.00,22.6,21.0,00.0,31.3,24.3,08.4,0000.0,0008.34,0005.01,0004.81
2023-01-21 16:42:00,,0826.5,5.00,0.00,22.5,21.1,00.0,31.3,24.3,08.7,0000.0,0008.38,0005.03,0004.83
2023-01-21 16:43:00,,0826.5,5.01,0.00,22.5,21.1,00.0,31.3,24.3,08.5,0000.0,0008.31,0005.05,0004.85
2023-01-21 16:44:00,,0826.5,5.00,0.00,22.6,21.1,00.0,31.3,24.4,08.3,0000.0,0007.43,0005.07,0004.87
2023-01-21 16:45:00,,0826.5,5.00,0.00,22.6,21.1,00.0,31.3,24.4,08.4,0000.0,0007.40,0005.09,0004.90
2023-01-21 16:46:00,,0826.5,5.00,0.00,22.6,21.1,00.0,31.3,24.4,08.3,0000.0,0007.35,0005.10,0004.92
2023-01-21 16:47:00,,0826.5,5.01,0.00,22.5,21.1,00.0,31.3,24.3,08.4,0000.0,0007.86,0005.11,0004.94
2023-01-21 16:48:00,,0826.5,5.00,0.00,22.5,21.1,00.0,31.3,24.3,08.4,0000.0,0007.94,0005.12,0004.95
2023-01-21 16:49:00,,0826.5,4.99,0.00,22.5,21.1,00.0,31.3,24.3,08.3,0000.0,0008.01,0005.14,0004.97
2023-01-21 16:50:00,,0826.6,5.00,0.00,22.5,21.1,00.0,31.3,24.3,08.3,0000.0,0008.11,0005.17,0004.99
2023-01-21 16:51:00,,0826.6,5.01,0.00,22.5,21.1,00.0,31.3,24.3,08.3,0000.0,0008.12,0005.17,0005.01
2023-01-21 16:52:00,,0826.5,5.01,0.00,22.5,21.2,00.0,31.3,24.3,08.3,0000.0,0008.42,0005.19,0005.02
2023-01-21 16:53:00,,0826.5,5.00,0.00,22.5,21.2,00.0,31.3,24.3,08.3,0000.0,0009.00,0005.24,0005.05
2023-01-21 16:54:00,,0826.5,4.99,0.00,22.5,21.2,00.0,31.3,24.3,08.3,0000.0,0009.07,0005.27,0005.06
2023-01-21 16:55:00,,0826.6,4.99,0.00,22.5,21.1,00.0,31.3,24.3,08.3,0000.0,0009.05,0005.28,0005.07
2023-01-21 16:56:00,,0826.5,4.99,0.00,22.5,21.1,00.0,31.3,24.3,08.4,0000.0,0009.10,0005.31,0005.08
2023-01-21 16:57:00,,0826.5,5.01,0.00,22.5,21.0,00.0,31.3,24.3,08.4,0000.0,0009.20,0005.33,0005.09
2023-01-21 16:58:00,,0826.5,5.00,0.00,22.5,21.0,00.0,31.3,24.3,08.5,0000.0,0008.86,0005.36,0005.10
2023-01-21 16:59:00,,0826.5,5.01,0.00,22.5,21.0,00.0,31.3,24.3,08.5,0000.0,0008.66,0005.39,0005.11
